Location: Del Amo
(33.8464°N, 118.2104°W)
Time: 18:33:29
(UTC+00:00)

S-56A Canister/Altair - Pass Details

Date: 22 September 2024
Orbit: 636 x 2487 km, 38.9° (Epoch: 14 October)

Event Time Altitude Azimuth Distance (km) Brightness Sun altitude
Rises 23:20:36 0° 239° (WSW) 2,983 11.8 29.2°
Reaches altitude 10° 23:22:56 10° 236° (WSW) 2,021 11.3 28.8°
Maximum altitude 23:27:20 67° 154° (SSE) 697 7.7 27.9°
Drops below altitude 10° 23:32:10 10° 72° (ENE) 2,215 9.4 27.0°
Sets 23:34:50 0° 70° (ENE) 3,303 10.2 26.5°
